Vorticity
nan nan nan nan nan nan nan nan nan nan nan nan nan nan nan nan nan nan nan nan nan nan nan nan nan nan nan nan nan nan nan nan nan nan nan nan nan nan nan nan nan nan nan nan nan nan nan nan nan nan nan nan nan nan nan nan nan nan nan nan nan nan nan nan nan nan nan nan nan
nan 10 10 10 11 11 9 7 7 8 9 9 8 8 9 8 8 8 8 8 8 8 9 8 6 5 4 6 9 9 9 8 8 9 9 9 8 8 9 9 8 9 10 11 12 11 8 10 14 14 12 10 8 8 9 8 7 6 6 8 12 12 11 10 9 9 10 12 nan
nan 9 9 9 11 11 10 8 7 8 9 10 9 9 9 9 8 8 8 8 9 8 8 7 6 5 5 8 9 9 8 7 8 10 10 8 7 8 9 8 8 9 10 11 10 10 8 11 14 13 11 8 7 9 9 8 7 7 7 12 15 13 10 8 8 9 11 11 nan
nan 9 9 8 10 11 10 8 7 9 10 10 10 10 9 9 8 8 9 9 9 8 8 7 6 6 6 7 8 9 8 7 9 10 10 8 7 8 8 8 9 10 10 9 8 9 10 14 16 13 10 8 9 10 8 6 7 9 10 13 13 10 8 7 8 10 10 9 nan
nan 9 9 8 8 11 10 8 8 9 10 9 9 10 10 9 9 8 8 8 8 8 8 8 7 6 6 7 8 9 8 8 9 11 9 8 8 8 8 9 10 10 9 8 8 9 11 16 18 13 10 9 10 8 5 5 8 11 12 11 9 8 8 8 10 10 9 7 nan
nan 8 9 8 9 11 10 8 8 9 9 8 8 9 9 8 8 8 8 8 8 7 7 8 7 7 8 9 10 10 10 9 9 9 8 9 8 8 8 9 10 10 9 8 8 10 12 17 17 11 9 9 8 5 4 7 10 11 9 8 8 9 9 8 9 8 6 3 nan
nan 7 8 8 10 11 11 9 8 9 9 7 6 8 9 8 7 8 9 10 9 8 8 8 7 7 8 9 9 9 9 9 8 8 9 9 8 7 8 9 9 9 9 9 9 11 13 16 15 10 8 9 8 4 5 8 9 8 7 8 10 10 8 9 9 7 4 2 nan
nan 7 7 8 8 10 11 10 9 8 8 7 6 7 8 9 8 10 11 11 9 9 9 7 6 7 8 9 8 8 8 9 9 9 9 8 7 8 9 9 9 9 9 10 9 10 13 16 12 9 8 9 7 4 3 6 8 7 8 11 12 10 9 9 7 6 4 6 nan
nan 7 7 8 8 9 11 10 8 7 7 7 7 8 9 9 9 10 12 10 9 9 9 6 6 7 9 9 8 8 8 8 9 9 9 8 7 8 9 9 8 9 10 10 9 10 14 15 10 8 7 7 5 3 3 5 7 8 11 14 10 8 7 7 5 6 7 8 nan
nan 8 7 8 9 10 11 11 8 7 6 7 8 9 8 9 10 11 11 9 8 8 8 7 6 8 9 9 9 9 9 9 8 8 8 8 7 8 9 8 7 9 9 9 9 10 13 12 7 6 6 6 5 5 6 6 7 9 13 12 6 5 7 8 8 8 9 9 nan
nan 8 8 8 8 10 11 11 9 7 7 7 8 9 9 9 10 10 9 9 8 8 8 7 8 9 9 9 8 8 9 9 8 8 8 8 8 8 8 8 8 8 9 9 10 11 11 8 5 5 7 7 8 8 7 6 7 9 11 8 5 7 8 9 10 11 10 8 nan
nan 8 8 8 9 10 11 10 9 7 7 8 9 9 10 9 8 8 9 9 9 9 9 8 8 9 10 9 7 8 9 9 9 9 8 8 8 8 8 8 8 8 9 10 11 11 8 6 5 5 7 10 12 8 5 5 8 9 9 8 8 8 8 8 10 11 9 7 nan
nan 8 8 8 10 11 11 11 9 7 6 7 9 9 9 8 8 8 9 9 9 10 9 8 9 10 9 8 8 8 8 9 9 9 8 8 7 8 8 8 8 9 10 11 10 9 8 6 5 6 7 10 10 6 5 7 9 9 8 8 8 8 7 8 10 9 8 7 nan
nan 8 8 9 10 11 10 10 9 7 6 7 9 9 9 8 8 9 9 9 9 10 9 9 10 9 7 7 8 8 9 9 9 9 8 8 7 8 8 8 8 9 10 10 8 8 8 7 7 7 7 8 7 7 8 9 9 9 8 8 8 8 8 9 9 9 8 8 nan
nan 9 9 9 10 10 9 10 9 7 6 7 8 9 9 8 8 8 9 9 9 10 9 9 9 8 7 8 8 9 10 10 9 8 8 8 8 8 8 8 8 9 9 9 9 9 8 8 8 8 8 8 8 9 10 10 10 9 8 8 8 8 8 8 9 9 8 8 nan
nan 9 9 9 9 9 10 10 9 7 6 7 8 9 9 9 8 7 8 9 10 9 7 7 9 9 8 8 9 11 11 10 9 8 8 7 8 8 8 8 8 8 8 9 9 10 9 9 8 8 8 8 9 9 10 10 10 9 8 8 9 8 8 8 9 9 8 8 nan
nan 9 8 8 8 9 9 10 9 7 6 7 8 9 9 9 8 7 7 9 10 7 6 8 10 9 8 8 10 11 10 9 8 7 7 7 7 8 8 8 8 9 9 9 9 9 9 9 8 8 8 9 9 9 9 10 10 9 9 9 9 9 9 9 9 9 9 9 nan
nan 8 8 7 7 8 8 9 8 8 7 8 9 9 8 8 8 8 8 8 8 6 7 9 10 9 8 8 10 10 9 8 7 7 7 7 8 8 8 8 9 9 10 9 9 8 8 8 8 9 9 9 9 9 9 9 9 8 8 9 10 10 10 10 10 10 9 9 nan
nan 7 7 7 7 7 7 8 9 9 9 9 9 8 8 8 8 9 9 8 7 7 8 9 10 9 8 9 9 9 9 8 6 7 7 8 8 8 8 8 9 10 10 10 9 8 8 8 8 8 8 8 8 8 8 9 9 8 8 10 10 10 10 10 10 10 9 9 nan
nan 7 7 7 7 8 8 9 9 10 9 8 7 7 8 9 9 8 8 8 8 9 9 9 9 8 8 9 9 9 10 8 6 7 8 9 8 8 8 9 10 11 11 11 9 8 7 7 7 8 8 8 8 8 9 9 9 8 10 11 10 9 9 10 10 10 11 11 nan
nan 7 7 7 8 8 9 9 9 9 8 7 8 9 9 9 9 9 8 9 9 9 9 9 9 8 8 8 9 10 10 8 7 8 8 9 8 9 9 10 10 11 11 10 8 7 7 7 7 8 8 9 9 9 9 9 9 9 11 10 8 8 9 10 11 11 12 12 nan
nan 7 7 8 8 8 9 9 9 8 8 8 9 9 9 9 9 9 10 10 10 10 9 10 10 9 9 9 8 9 9 8 7 7 8 9 8 9 10 10 9 10 10 10 9 7 7 7 8 9 10 10 9 8 9 9 9 10 10 8 8 9 10 11 12 12 12 12 nan
nan 8 8 8 7 8 9 10 9 9 9 8 9 9 9 9 10 10 11 10 9 10 10 10 9 9 10 9 8 8 8 7 7 7 8 8 8 8 10 10 10 10 12 12 8 6 6 8 9 10 11 10 8 9 9 10 11 10 9 8 9 10 11 12 11 11 11 10 nan
nan 9 8 7 7 9 10 10 9 9 8 8 9 9 9 10 10 10 10 9 8 8 10 10 9 10 10 10 9 7 7 6 7 7 8 8 8 8 10 11 12 13 13 7 -3 -5 1 6 8 9 10 10 10 10 10 10 10 10 9 9 10 11 12 11 10 10 9 9 nan
nan 9 8 8 9 10 9 8 8 8 9 9 9 10 9 10 10 9 9 8 8 9 10 10 10 10 10 10 9 8 7 7 7 7 8 8 9 10 11 12 13 13 9 -6 -16 -10 0 7 9 9 9 10 9 10 10 10 10 10 10 9 10 11 11 10 10 9 9 10 nan
nan 8 8 9 10 9 9 9 9 9 9 9 9 9 10 10 9 8 7 7 8 10 11 11 10 9 10 10 7 7 9 9 7 7 7 7 8 10 12 12 12 10 1 -14 -14 -4 4 7 9 11 14 13 10 11 11 11 10 10 10 11 12 11 10 9 8 8 9 9 nan
nan 8 9 10 9 9 9 10 9 9 9 8 8 9 9 9 9 8 7 7 9 11 12 12 10 8 11 10 6 7 9 9 8 8 8 8 7 9 11 12 11 5 -8 -16 -8 2 7 8 8 11 17 17 13 12 12 10 10 11 13 13 12 10 9 9 8 8 9 8 nan
nan 8 9 9 9 9 10 10 8 8 8 9 9 10 9 8 8 8 8 8 10 12 13 12 11 11 11 6 4 6 8 9 9 9 9 8 8 9 10 10 6 -2 -12 -11 -1 6 8 8 8 9 13 18 21 16 13 11 12 13 13 12 11 10 10 10 10 9 8 8 nan
nan 8 8 9 9 9 9 9 8 8 9 9 9 9 9 9 8 8 7 8 10 12 13 11 10 9 5 3 5 7 9 10 10 9 7 7 8 9 8 7 4 -2 -8 -4 4 7 7 7 7 8 10 20 26 19 14 12 11 11 12 11 9 8 9 9 8 8 8 9 nan
nan 8 8 8 9 9 9 8 9 9 10 9 8 9 9 8 7 7 8 10 12 12 10 9 6 4 3 6 8 8 9 9 9 8 7 6 7 7 7 8 7 2 -3 -2 4 6 6 7 7 8 9 17 25 23 16 10 9 10 10 9 6 7 8 9 8 8 8 7 nan
nan 9 8 8 9 9 9 9 9 9 9 9 8 8 8 8 8 10 10 11 10 9 9 8 5 5 7 9 8 7 7 8 8 8 7 6 7 8 8 9 8 4 -3 -3 3 5 6 7 8 9 8 17 27 24 16 9 10 10 9 6 6 7 10 11 10 8 7 6 nan
nan 9 8 8 9 9 10 9 9 9 9 9 9 9 8 9 10 10 10 9 8 9 10 7 5 7 8 9 8 8 8 8 7 7 6 7 8 9 9 10 10 4 -4 -4 2 5 6 8 9 9 8 18 27 24 17 12 12 11 10 8 9 10 11 9 8 7 8 9 nan
nan 8 8 8 9 10 10 10 9 9 9 9 9 9 9 10 10 9 9 10 10 10 9 6 6 8 9 10 9 9 9 8 7 7 8 9 9 9 9 13 11 1 -6 -4 2 5 7 8 9 9 8 20 31 26 19 13 13 11 10 10 11 12 11 9 8 8 8 10 nan
nan 8 8 9 9 10 10 10 9 9 9 9 9 9 9 9 9 9 10 11 12 11 9 8 9 10 11 9 8 7 7 8 8 8 9 10 9 9 10 12 6 -5 -8 -3 4 6 8 8 8 9 11 26 35 26 16 12 11 10 9 9 10 10 10 10 9 9 9 10 nan
nan 8 8 9 10 9 9 9 8 8 8 8 9 10 11 10 9 9 9 9 11 10 9 8 8 9 9 9 8 6 6 8 8 8 8 9 8 9 9 10 3 -6 -6 1 5 7 7 8 8 10 18 32 33 21 13 12 12 10 9 10 10 10 10 10 11 10 10 11 nan
nan 8 9 9 9 9 8 8 8 8 8 8 9 10 10 10 11 10 8 9 11 9 7 7 7 7 7 8 8 8 9 9 8 8 8 8 8 9 10 9 4 -1 0 4 6 6 7 8 8 12 24 34 27 16 12 13 13 11 10 11 11 10 11 12 12 11 11 11 nan
nan 9 9 9 8 8 9 8 8 7 8 9 11 10 10 11 12 11 9 10 10 7 7 8 7 8 8 7 7 7 7 8 8 8 8 9 10 10 9 9 7 5 3 4 5 5 6 7 9 15 26 30 20 13 12 13 11 10 10 12 12 12 13 13 13 13 12 10 nan
nan 9 9 9 8 8 8 8 7 8 9 11 12 10 10 11 11 10 8 9 9 7 8 9 8 8 7 6 7 7 8 8 8 8 9 10 10 9 8 9 9 7 3 1 2 5 7 7 9 14 24 24 17 14 13 11 9 9 10 12 12 11 13 13 13 13 12 8 nan
nan 10 9 9 9 9 8 8 8 9 10 11 9 9 9 11 10 8 8 10 9 8 7 7 7 7 6 7 9 9 9 9 10 10 10 10 7 5 7 11 10 7 2 0 3 6 7 8 9 12 22 25 20 16 13 10 8 9 10 11 11 11 13 12 11 11 11 9 nan
nan 10 10 9 9 9 8 8 9 10 10 9 9 10 11 10 8 8 9 10 9 8 8 7 7 7 6 8 10 10 9 9 10 10 10 8 6 5 10 15 12 9 5 4 5 7 7 8 8 12 24 27 19 15 12 10 8 9 10 11 10 11 12 12 12 13 13 13 nan
nan nan nan nan nan nan nan nan nan nan nan nan nan nan nan nan nan nan nan nan nan nan nan nan nan nan nan nan nan nan nan nan nan nan nan nan nan nan nan nan nan nan nan nan nan nan nan nan nan nan nan nan nan nan nan nan nan nan nan nan nan nan nan nan nan nan nan nan nan
CAPE
nan nan nan nan nan nan nan nan nan nan nan nan nan nan nan nan nan nan nan nan nan nan nan nan nan nan nan nan nan nan nan nan nan nan nan nan nan nan nan nan nan nan nan nan nan nan nan nan nan nan nan nan nan nan nan nan nan nan nan nan nan nan nan nan nan nan nan nan nan
nan nan nan nan nan nan nan nan nan nan nan nan nan nan nan nan nan nan nan nan nan nan nan nan nan nan nan nan nan nan nan nan nan nan nan nan nan nan nan nan nan nan nan nan nan nan nan nan nan nan nan nan nan nan nan nan nan nan nan nan nan nan nan nan nan nan nan nan nan
nan nan nan nan nan nan nan nan nan nan nan nan nan nan nan nan nan nan nan nan nan nan nan nan nan nan nan nan nan nan nan nan nan nan nan nan nan nan nan nan nan nan nan nan nan nan nan nan nan nan nan nan nan nan nan nan nan nan nan nan nan nan nan nan nan nan nan nan nan
nan nan nan nan nan nan nan nan nan nan nan nan nan nan nan nan nan nan nan nan nan nan nan nan nan nan nan nan nan nan nan nan nan nan nan nan nan nan nan nan nan nan nan nan nan nan nan nan nan nan nan nan nan nan nan nan nan nan nan nan nan nan nan nan nan nan nan nan nan
nan nan nan nan nan nan nan nan nan nan nan nan nan nan nan nan nan nan nan nan nan nan nan nan nan nan nan nan nan nan nan nan nan nan nan nan nan nan nan nan nan nan nan nan nan nan nan nan nan nan nan nan nan nan nan nan nan nan nan nan nan nan nan nan nan nan nan nan nan
nan nan nan nan nan nan nan nan nan nan nan nan nan nan nan nan nan nan nan nan nan nan nan nan nan nan nan nan nan nan nan nan nan nan nan nan nan nan nan nan nan nan nan nan nan nan nan nan nan nan nan nan nan nan nan nan nan nan nan nan nan nan nan nan nan nan nan nan nan
nan nan nan nan nan nan nan nan nan nan nan nan nan nan nan nan nan nan nan nan nan nan nan nan nan nan nan nan nan nan nan nan nan nan nan nan nan nan nan nan nan nan nan nan nan nan nan nan nan nan nan nan nan nan nan nan nan nan nan nan nan nan nan nan nan nan nan nan nan
nan nan nan nan nan nan nan nan nan nan nan nan nan nan nan nan nan nan nan nan nan nan nan nan nan nan nan nan nan nan nan nan nan nan nan nan nan nan nan nan nan nan nan nan nan nan nan nan nan nan nan nan nan nan nan nan nan nan nan nan nan nan nan nan nan nan nan nan nan
nan nan nan nan nan nan nan nan nan nan nan nan nan nan nan nan nan nan nan nan nan nan nan nan nan nan nan nan nan nan nan nan nan nan nan nan nan nan nan nan nan nan nan nan nan nan nan nan nan nan nan nan nan nan nan nan nan nan nan nan nan nan nan nan nan nan nan nan nan
nan nan nan nan nan nan nan nan nan nan nan nan nan nan nan nan nan nan nan nan nan nan nan nan nan nan nan nan nan nan nan nan nan nan nan nan nan nan nan nan nan nan nan nan nan nan nan nan nan nan nan nan nan nan nan nan nan nan nan nan nan nan nan nan nan nan nan nan nan
nan nan nan nan nan nan nan nan nan nan nan nan nan nan nan nan nan nan nan nan nan nan nan nan nan nan nan nan nan nan nan nan nan nan nan nan nan nan nan nan nan nan nan nan nan nan nan nan nan nan nan nan nan nan nan nan nan nan nan nan nan nan nan nan nan nan nan nan nan
nan nan nan nan nan nan nan nan nan nan nan nan nan nan nan nan nan nan nan nan nan nan nan nan nan nan nan nan nan nan nan nan nan nan nan nan nan nan nan nan nan nan nan nan nan nan nan nan nan nan nan nan nan nan nan nan nan nan nan nan nan nan nan nan nan nan nan nan nan
nan nan nan nan nan nan nan nan nan nan nan nan nan nan nan nan nan nan nan nan nan nan nan nan nan nan nan nan nan nan nan nan nan nan nan nan nan nan nan nan nan nan nan nan nan nan nan nan nan nan nan nan nan nan nan nan nan nan nan nan nan nan nan nan nan nan nan nan nan
nan nan nan nan nan nan nan nan nan nan nan nan nan nan nan nan nan nan nan nan nan nan nan nan nan nan nan nan nan nan nan nan nan nan nan nan nan nan nan nan nan nan nan nan nan nan nan nan nan nan nan nan nan nan nan nan nan nan nan nan nan nan nan nan nan nan nan nan nan
nan nan nan nan nan nan nan nan nan nan nan nan nan nan nan nan nan nan nan nan nan nan nan nan nan nan nan nan nan nan nan nan nan nan nan nan nan nan nan nan nan nan nan nan nan nan nan nan nan nan nan nan nan nan nan nan nan nan nan nan nan nan nan nan nan nan nan nan nan
nan nan nan nan nan nan nan nan nan nan nan nan nan nan nan nan nan nan nan nan nan nan nan nan nan nan nan nan nan nan nan nan nan nan nan nan nan nan nan nan nan nan nan nan nan nan nan nan nan nan nan nan nan nan nan nan nan nan nan nan nan nan nan nan nan nan nan nan nan
nan nan nan nan nan nan nan nan nan nan nan nan nan nan nan nan nan nan nan nan nan nan nan nan nan nan nan nan nan nan nan nan nan nan nan nan nan nan nan nan nan nan nan nan nan nan nan nan nan nan nan nan nan nan nan nan nan nan nan nan nan nan nan nan nan nan nan nan nan
nan nan nan nan nan nan nan nan nan nan nan nan nan nan nan nan nan nan nan nan nan nan nan nan nan nan nan nan nan nan nan nan nan nan nan nan nan nan nan nan nan nan nan nan nan nan nan nan nan nan nan nan nan nan nan nan nan nan nan nan nan nan nan nan nan nan nan nan nan
nan nan nan nan nan nan nan nan nan nan nan nan nan nan nan nan nan nan nan nan nan nan nan nan nan nan nan nan nan nan nan nan nan nan nan nan nan nan nan nan nan nan nan nan nan nan nan nan nan nan nan nan nan nan nan nan nan nan nan nan nan nan nan nan nan nan nan nan nan
nan nan nan nan nan nan nan nan nan nan nan nan nan nan nan nan nan nan nan nan nan nan nan nan nan nan nan nan nan nan nan nan nan nan nan nan nan nan nan nan nan nan nan nan nan nan nan nan nan nan nan nan nan nan nan nan nan nan nan nan nan nan nan nan nan nan nan nan nan
nan nan nan nan nan nan nan nan nan nan nan nan nan nan nan nan nan nan nan nan nan nan nan nan nan nan nan nan nan nan nan nan nan nan nan nan nan nan nan nan nan nan nan nan nan nan nan nan nan nan nan nan nan nan nan nan nan nan nan nan nan nan nan nan nan nan nan nan nan
nan nan nan nan nan nan nan nan nan nan nan nan nan nan nan nan nan nan nan nan nan nan nan nan nan nan nan nan nan nan nan nan nan nan nan nan nan nan nan nan nan nan nan nan nan nan nan nan nan nan nan nan nan nan nan nan nan nan nan nan nan nan nan nan nan nan nan nan nan
nan nan nan nan nan nan nan nan nan nan nan nan nan nan nan nan nan nan nan nan nan nan nan nan nan nan nan nan nan nan nan nan nan nan nan nan nan nan nan nan nan nan nan nan nan nan nan nan nan nan nan nan nan nan nan nan nan nan nan nan nan nan nan nan nan nan nan nan nan
nan nan nan nan nan nan nan nan nan nan nan nan nan nan nan nan nan nan nan nan nan nan nan nan nan nan nan nan nan nan nan nan nan nan nan nan nan nan nan nan nan nan nan nan nan nan nan nan nan nan nan nan nan nan nan nan nan nan nan nan nan nan nan nan nan nan nan nan nan
nan nan nan nan nan nan nan nan nan nan nan nan nan nan nan nan nan nan nan nan nan nan nan nan nan nan nan nan nan nan nan nan nan nan nan nan nan nan nan nan nan nan nan nan nan nan nan nan nan nan nan nan nan nan nan nan nan nan nan nan nan nan nan nan nan nan nan nan nan
nan nan nan nan nan nan nan nan nan nan nan nan nan nan nan nan nan nan nan nan nan nan nan nan nan nan nan nan nan nan nan nan nan nan nan nan nan nan nan nan nan nan nan nan nan nan nan nan nan nan nan nan nan nan nan nan nan nan nan nan nan nan nan nan nan nan nan nan nan
nan nan nan nan nan nan nan nan nan nan nan nan nan nan nan nan nan nan nan nan nan nan nan nan nan nan nan nan nan nan nan nan nan nan nan nan nan nan nan nan nan nan nan nan nan nan nan nan nan nan nan nan nan nan nan nan nan nan nan nan nan nan nan nan nan nan nan nan nan
nan nan nan nan nan nan nan nan nan nan nan nan nan nan nan nan nan nan nan nan nan nan nan nan nan nan nan nan nan nan nan nan nan nan nan nan nan nan nan nan nan nan nan nan nan nan nan nan nan nan nan nan nan nan nan nan nan nan nan nan nan nan nan nan nan nan nan nan nan
nan nan nan nan nan nan nan nan nan nan nan nan nan nan nan nan nan nan nan nan nan nan nan nan nan nan nan nan nan nan nan nan nan nan nan nan nan nan nan nan nan nan nan nan nan nan nan nan nan nan 0 1 nan nan nan nan nan nan nan nan nan nan nan nan nan nan nan nan nan
nan nan nan nan nan nan nan nan nan nan nan nan nan nan nan nan nan nan nan nan nan nan nan nan nan nan nan nan nan nan nan nan nan nan nan nan nan nan nan nan nan nan nan nan nan nan nan nan nan nan 0 2 nan nan nan nan nan nan nan nan nan nan nan nan nan nan nan nan nan
nan nan nan nan nan nan nan nan nan nan nan nan nan nan nan nan nan nan nan nan nan nan nan nan nan nan nan nan nan nan nan nan nan nan nan nan nan nan nan nan nan nan nan nan nan nan nan nan nan nan 0 3 nan nan nan nan nan nan nan nan nan nan nan nan nan nan nan nan nan
nan nan nan nan nan nan nan nan nan nan nan nan nan nan nan nan nan nan nan nan nan nan nan nan nan nan nan nan nan nan nan nan nan nan nan nan nan nan nan nan nan nan nan nan nan nan nan nan 0 0 1 4 0 nan nan nan nan nan nan nan nan nan nan nan nan nan nan nan nan
nan nan nan nan nan nan nan nan nan nan nan nan nan nan nan nan nan nan nan nan nan nan nan nan nan nan nan nan nan nan nan nan nan nan nan nan nan nan nan nan nan nan nan nan nan nan nan nan 0 0 1 7 0 nan nan nan nan nan nan nan nan nan nan nan nan nan nan nan nan
nan nan nan nan nan nan nan nan nan nan nan nan nan nan nan nan nan nan nan nan nan nan nan nan nan nan nan nan nan nan nan nan nan nan nan nan nan nan nan nan nan nan nan nan nan nan nan nan 0 0 2 9 nan nan nan nan nan nan nan nan nan nan nan nan nan nan nan nan nan
nan nan nan nan nan nan nan nan nan nan nan nan nan nan nan nan nan nan nan nan nan nan nan nan nan nan nan nan nan nan nan nan nan nan nan nan nan nan nan nan nan nan nan nan nan nan nan nan 0 0 4 7 nan nan nan nan nan nan nan nan nan nan nan nan nan nan nan nan nan
nan nan nan nan nan nan nan nan nan nan nan nan nan nan nan nan nan nan nan nan nan nan nan nan nan nan nan nan nan nan nan nan nan nan nan nan nan nan nan nan nan nan nan nan nan nan nan nan 1 1 7 2 nan nan nan nan nan nan nan nan nan nan nan nan nan nan nan nan nan
nan nan nan nan nan nan nan nan nan nan nan nan nan nan nan nan nan nan nan nan nan nan nan nan nan nan nan nan nan nan nan nan nan nan nan nan nan nan nan nan nan nan nan nan nan nan nan 0 3 3 9 0 nan nan nan nan nan nan nan nan nan nan nan nan nan nan nan nan nan
nan nan nan nan nan nan nan nan nan nan nan nan nan nan nan nan nan nan nan nan nan nan nan nan nan nan nan nan nan nan nan nan nan nan nan nan nan nan nan nan nan nan nan nan nan nan nan 1 7 7 13 nan nan nan nan nan nan nan nan nan nan nan nan nan nan nan nan nan nan
nan nan nan nan nan nan nan nan nan nan nan nan nan nan nan nan nan nan nan nan nan nan nan nan nan nan nan nan nan nan nan nan nan nan nan nan nan nan nan nan nan nan nan nan nan nan nan 3 13 13 24 5 nan 0 0 1 0 nan nan nan nan nan nan nan nan nan nan nan 27
nan nan nan nan nan nan nan nan nan nan nan nan nan nan nan nan nan nan nan nan nan nan nan nan nan nan nan nan nan nan nan nan nan nan nan nan nan nan nan nan nan nan nan nan nan nan nan 8 21 21 33 10 0 0 0 2 1 0 0 nan nan nan nan nan nan nan nan nan 76
nan nan nan nan nan nan nan nan nan nan nan nan nan nan nan nan nan nan nan nan nan nan nan nan nan nan nan nan nan nan nan nan nan nan nan nan nan nan nan nan nan nan nan nan nan nan 1 15 30 30 45 7 nan 2 2 2 3 1 1 nan nan nan nan nan nan nan 4 20 81